Location: Athens Mining District
(38.6246°N, 117.8173°W)
Time: 04:03:43
(UTC+00:00)

Daily predictions for brighter satellites

Satellite Brightness Start Highest point End
(mag) Time Altitude Azimuth Time Altitude Azimuth Time Altitude Azimuth
Cosmos 2297 3.7 02:42:19 10° SSW 02:47:55 73° ESE 02:53:36 10° NNE
USA 267 4.3 02:42:08 10° NE 02:48:21 48° NW 02:54:33 10° WSW
SJ 16-02 3.0 02:47:49 10° NNE 02:50:34 16° ENE 02:53:18 10° E
CZ-4B DEB 4.3 02:46:35 10° SSE 02:52:02 63° ENE 02:57:31 10° N
Cosmos 1441 Rocket 3.3 02:49:38 10° SSW 02:53:20 77° W 02:57:06 10° N
APEX 3.3 02:52:13 10° NNW 02:55:25 57° WSW 02:58:22 10° S
ADEOS 3.8 02:51:51 10° S 02:57:04 78° WSW 03:02:18 10° NNW
Cosmos 2369 Rocket 2.2 02:51:35 10° S 02:57:11 63° ESE 03:02:47 10° NNE
ADEOS Rocket 3.2 02:52:34 10° S 02:58:09 69° WSW 03:03:38 10° NNW
SL-8 Rocket 4.4 02:57:15 10° N 03:03:05 42° ENE 03:08:52 10° SSE
Cosmos 1825 2.7 03:00:58 10° NNE 03:04:06 32° ENE 03:07:14 10° SE
SPOT 1/Viking Rocket 3.8 03:00:09 10° SE 03:05:09 50° ENE 03:10:12 10° N
NOSS 2-2 (C) 3.4 03:02:05 10° SW 03:05:32 60° NW 03:08:38 10° NNE
Cosmos 2263 4.3 03:00:48 10° S 03:06:15 53° ESE 03:11:42 10° NNE
H-2A ROCKET BODY 4.2 03:01:57 10° WSW 03:06:45 34° S 03:21:37 11° ESE
Cosmos 1674 Rocket 3.6 03:02:42 10° N 03:07:10 87° W 03:11:37 10° S
CZ-4B R/B 3.5 03:06:23 10° SE 03:11:50 52° ENE 03:17:16 10° N
Hubble Space Telescope 2.5 03:11:27 10° SW 03:14:13 18° S 03:16:31 12° SE
[s.n.70599] 4.0 03:12:09 10° W 03:14:19 25° SSW 03:16:20 11° SSE
Cosmos 2341 Rocket 4.1 03:08:27 10° N 03:14:39 57° E 03:20:45 10° SSE
USA 129 3.6 03:14:29 10° NE 03:15:30 14° ENE 03:15:30 14° ENE
Cosmos 2082 Rocket 4.2 03:14:53 10° NW 03:19:43 29° WSW 03:24:31 10° SSW
Resurs 1-3 3.6 03:15:56 10° SSE 03:20:17 86° WSW 03:24:39 10° NNW
USA 234 3.3 03:15:42 11° ESE 03:21:57 72° NE 03:28:26 10° NW
NOSS 3-1 (C) 3.1 03:19:54 10° S 03:24:21 46° ESE 03:29:29 10° NE
Cosmos 1025 Rocket 3.1 03:23:31 10° N 03:27:49 57° E 03:32:07 10° SSE
Okean O Rocket 1.9 03:26:49 13° SE 03:30:21 45° ENE 03:34:30 10° N
Cosmos 2366 rocket 4.0 03:27:42 10° N 03:34:03 66° E 03:40:21 10° SSE
Resurs 01 Rocket 1.8 03:32:30 14° SSE 03:36:08 53° ENE 03:40:27 10° N
Cosmos 1346 Rocket 2.8 03:33:01 10° SSW 03:36:50 80° W 03:40:41 10° N
CARTOSAT-1 3.8 03:35:11 17° SE 03:38:13 49° ENE 03:42:20 10° N
SJ-6B 3.8 03:34:44 10° S 03:38:31 47° W 03:42:22 10° NNW
Cosmos 1975 Rocket 3.5 03:36:06 10° N 03:40:11 40° ENE 03:42:18 24° SE
Cosmos 2218 Rocket 4.0 03:35:05 10° N 03:41:30 72° E 03:47:49 10° SSE
Cosmos 1328 3.6 03:39:39 10° N 03:43:27 90° NE 03:46:51 13° S
ATLAS 3B R/B 3.1 03:39:13 10° S 03:45:36 42° ESE 03:52:25 10° NE
Cosmos 1302 Rocket 4.4 03:41:54 10° SSW 03:47:08 65° WNW 03:52:22 10° NNE
OAO 3 Rocket 3.4 03:44:02 10° W 03:48:49 56° S 03:51:07 29° ESE
Cosmos 1821 Rocket 4.2 03:43:40 10° N 03:49:36 47° ENE 03:53:13 22° SE
Centaur D-1AR AC-36 4.5 03:46:21 10° S 03:50:22 19° SE 03:50:48 19° SE
USA 281 3.4 03:46:26 20° SE 03:50:59 58° ENE 03:57:24 10° NNW
Cosmos 1892 3.9 03:47:40 10° NNW 03:51:01 39° W 03:54:20 10° SSW
Cosmos 1959 Rocket 4.4 03:45:21 10° N 03:51:30 82° E 03:57:41 10° S
USA 186 2.3 03:49:11 14° S 03:51:44 53° W 03:54:43 10° NNW
Cosmos 1782 Rocket 3.8 03:48:10 10° SSW 03:52:30 71° W 03:56:53 10° N
Meteor 1-21 Rocket 4.4 03:50:42 10° N 03:56:39 84° W 04:02:33 10° S
DELTA 2 R/B (1) 4.2 03:53:05 10° W 03:58:26 46° SSW 04:01:06 27° SSE
CZ-4 R/B 3.2 03:55:50 10° SSW 03:59:20 30° W 04:02:48 10° NW
Cosmos 1455 3.7 03:58:38 10° SSW 04:01:55 35° W 04:05:14 10° N
ATLAS 5 CENTAUR R/B 0.6 04:01:47 10° SSW 04:05:05 81° ESE 04:08:35 10° NE
SPOT 5 3.8 04:03:53 31° E 04:05:11 35° ENE 04:09:59 10° N
ERS-1 Rocket 4.0 04:16:12 28° ENE 04:16:16 28° ENE 04:20:28 10° N
Meteor 1-11 4.1 04:10:38 10° N 04:16:18 75° E 04:18:52 34° SSE
Okean 2 Rocket 3.7 04:29:19 42° NE 04:29:19 42° NE 04:32:42 10° NNE
SJ 16-02 2.4 04:25:03 10° NNW 04:29:07 41° WSW 04:30:56 27° SSW
MOS 1 4.2 04:28:08 43° SSE 04:30:07 81° ENE 04:35:51 10° NNW
CZ-4C R/B 3.8 04:27:30 10° N 04:30:49 48° WNW 04:31:37 38° WSW
In-Cosmos 22 Rocket 4.5 04:28:24 10° NNW 04:33:45 64° W 04:36:36 28° SSW
OAO 1 Rocket 4.4 04:29:35 10° WSW 04:34:48 59° S 04:34:58 58° SSE
Cosmos 1934 Rocket 4.2 04:29:38 10° N 04:35:31 46° ENE 04:35:59 45° E
IRS-1C Rocket 4.0 04:37:49 63° SE 04:38:32 73° ENE 04:43:49 10° N
Cosmos 2297 Rocket 3.9 04:37:31 10° N 04:41:24 19° NE 04:41:24 19° NE
Sich 1 Rocket 4.0 04:45:03 52° NNE 04:45:03 52° NNE 04:48:28 10° N
Okean-O 3.2 04:43:30 47° SW 04:44:16 53° W 04:48:36 10° NNW
Spot 2 Rocket 4.2 04:47:38 39° NE 04:47:38 39° NE 04:51:37 10° N
MetOp-B 4.0 04:46:23 68° SSE 04:47:06 89° E 04:52:30 10° NNW
Terra 2.6 04:48:09 38° NE 04:48:09 38° NE 04:51:38 10° N
NOSS 3-1 (A) 3.0 04:46:33 10° SW 04:51:20 74° NW 04:56:56 10° NNE
USA 245 4.1 04:59:47 78° ENE 04:59:47 78° ENE 05:04:50 10° N
IRS-1A Rocket 4.4 05:03:42 67° SSW 05:04:26 77° WSW 05:10:21 10° NNW
Ariane Rocket 3.5 05:07:21 51° NNE 05:07:21 51° NNE 05:11:17 10° N
Okean O Rocket 4.3 05:04:27 10° SW 05:06:51 15° W 05:09:15 10° WNW
Resurs 01 Rocket 4.4 05:11:01 10° WSW 05:12:53 12° W 05:14:45 10° WNW
SPOT 3 Rocket 4.1 05:15:06 51° NNE 05:15:06 51° NNE 05:19:06 10° N
Cosmos 1241 Rocket 4.4 05:12:55 10° NNW 05:18:58 79° NNE 05:18:58 79° NNE
Iridium 4 Rocket 4.1 05:29:08 56° WNW 05:29:08 56° WNW 05:34:10 10° N
ATLAS 3B R/B 3.9 05:29:42 10° WSW 05:36:18 42° NW 05:43:23 10° NNE
Cosmos 1605 Rocket 4.2 05:34:45 10° N 05:40:11 66° N 05:40:11 66° N
Cosmos 2227 Rocket 3.8 05:51:37 10° N 05:54:46 28° NNE 05:54:46 28° NNE
CZ-4C R/B 3.6 06:15:07 10° NNW 06:21:29 47° NE 06:21:29 47° NE
Terra 4.5 06:26:51 14° WNW 06:26:51 14° WNW 06:28:01 10° NW
Cosmos 2297 Rocket 3.8 06:20:20 10° NNW 06:23:12 31° NW 06:23:12 31° NW
COSMOS 2455 4.2 06:23:50 10° NNW 06:27:12 35° NNW 06:27:12 35° NNW
Cosmos 2263 Rocket 4.3 06:55:17 10° N 06:57:20 22° N 06:57:20 22° N
CENTAUR R/B 3.8 06:55:04 10° NNW 07:02:34 51° NE 07:02:34 51° NE
Cosmos 1980 Rocket 4.5 07:44:27 20° N 07:44:27 20° N 07:46:20 10° N
Cosmos 2333 Rocket 4.4 08:34:50 20° NE 08:34:50 20° NE 08:36:33 10° NNE
Cosmos 2360 Rocket 4.3 08:38:35 21° NNE 08:38:35 21° NNE 08:40:27 10° NNE
Cosmos 2322 Rocket 4.2 08:48:27 24° NNE 08:48:27 24° NNE 08:50:34 10° NNE
Cosmos 2219 Rocket 4.2 08:55:50 22° NE 08:55:50 22° NE 08:57:54 10° NE
SL-16 R/B 4.2 09:04:26 22° NNW 09:04:26 22° NNW 09:06:47 10° N
USA 215 4.2 08:57:32 10° NE 09:02:43 40° NNW 09:02:43 40° NNW
ADEOS II 4.2 09:15:08 10° NE 09:17:38 21° ENE 09:17:38 21° ENE
CZ-2D R/B 3.6 09:27:46 10° NNE 09:30:50 33° NE 09:30:50 33° NE
SL-16 R/B 4.0 09:36:56 26° E 09:39:00 32° ENE 09:44:24 10° N
COSMOS 2428 3.6 09:52:37 46° NE 09:52:37 46° NE 09:56:39 10° NNE
CZ-2C R/B 3.5 09:58:45 46° NNE 09:58:45 46° NNE 10:02:38 10° N
Cosmos 2237 Rocket 3.6 09:58:31 29° E 09:58:31 29° E 10:03:10 10° NE
Lacrosse 5 3.7 10:00:41 24° NNW 10:00:41 24° NNW 10:03:50 10° NNE
ALOS 4.0 09:59:13 10° NNE 10:02:16 29° ENE 10:02:16 29° ENE
CZ-2C R/B 3.9 10:00:42 10° NNE 10:04:32 48° NE 10:04:32 48° NE
Cosmos 2322 4.4 10:08:07 49° N 10:08:07 49° N 10:12:21 10° NNE
Resurs 1-4 Rocket 3.1 10:07:49 10° N 10:11:14 39° NNW 10:11:14 39° NNW
Cosmos 2333 Rocket 4.0 10:16:50 20° NW 10:16:50 20° NW 10:19:57 10° N
Cosmos 2360 Rocket 4.2 10:20:20 17° NW 10:20:20 17° NW 10:23:04 10° N
Cosmos 1538 Rocket 4.4 10:28:52 59° N 10:28:52 59° N 10:33:15 10° NNE
Nadezhda 4 Rocket 3.8 10:28:34 81° NW 10:28:34 81° NW 10:34:30 10° N
GP-B 4.2 10:24:03 10° N 10:27:12 42° NE 10:27:12 42° NE
IDEFIX/ARIANE 42P 4.0 10:27:25 10° N 10:30:18 26° NW 10:30:18 26° NW
NOSS 0 Rocket 3.8 10:32:14 85° SSE 10:32:23 86° ESE 10:38:33 10° NNE
Cosmos 2278 Rocket 3.2 10:28:20 10° N 10:33:48 45° ENE 10:39:12 10° SE
Cosmos 2219 Rocket 3.7 10:37:32 23° NW 10:37:32 23° NW 10:41:12 10° N
RESURS DK-1 3.8 10:39:59 33° N 10:39:59 33° N 10:42:21 10° NNE
Meteor 2-17 Rocket 4.3 10:38:24 79° WSW 10:38:38 81° W 10:44:46 10° N
Cosmos 1428 Rocket 4.5 10:38:19 63° SSE 10:39:24 81° E 10:45:42 10° N
ATLAS 5 CENTAUR R/B 4.1 10:42:32 27° S 10:42:32 27° S 10:46:58 10° SE
Cosmos 1151 Rocket 3.6 10:44:41 52° ENE 10:44:41 52° ENE 10:48:35 10° NNE
Cosmos 2344 4.5 10:36:58 10° NNW 10:45:47 71° NE 10:58:12 10° SE
SL-16 R/B 4.2 10:45:14 12° SSE 10:49:03 22° E 10:53:19 10° NE
CZ-2C R/B 3.8 10:46:24 10° NNE 10:51:08 35° E 10:53:57 21° SSE
ADEOS II 2.9 10:54:22 10° N 10:58:31 35° NW 10:58:31 35° NW
Meteor 1-19 Rocket 4.2 11:02:23 57° SW 11:03:32 73° W 11:09:32 10° N
Cosmos 923 Rocket 3.8 11:03:38 67° SSW 11:04:21 84° WNW 11:09:38 10° NNE
FENGYUN 3A 4.3 11:00:02 10° N 11:04:53 38° WNW 11:04:53 38° WNW
Cosmos 1092 Rocket 3.8 11:09:38 45° SSW 11:11:36 73° W 11:17:45 10° N
CZ-2D R/B 3.8 11:08:55 10° NNW 11:12:08 19° WNW 11:12:08 19° WNW
Envisat 3.0 11:07:55 10° NNE 11:13:00 77° ESE 11:15:01 37° S
CZ-3 R/B 4.5 11:01:21 22° SSW 11:13:24 31° S 11:22:29 10° ESE
Cosmos 1805 Rocket 4.0 11:13:40 10° NNW 11:17:01 43° NW 11:17:01 43° NW
UNK 4.0 11:18:31 47° WNW 11:18:31 47° WNW 11:22:25 10° NNW
Cosmos 2026 Rocket 4.0 11:16:45 40° SW 11:18:58 64° W 11:25:17 10° N
Cosmos 1666 Rocket 4.3 11:17:11 10° N 11:21:33 53° E 11:25:52 10° SSE
NOSS 2-2 (E) 4.2 11:17:21 10° NW 11:22:20 88° SW 11:29:29 10° SSE
SL-16 R/B 2.9 11:22:00 38° WSW 11:22:25 38° W 11:28:10 10° NNW
Cosmos 1733 3.8 11:21:18 10° NNW 11:23:46 39° NW 11:23:46 39° NW
Intercosmos 25 Rocket 4.2 11:21:46 10° N 11:25:22 58° E 11:30:40 10° SSE
YAOGAN 6 2.7 11:22:34 10° NNE 11:25:49 61° ESE 11:26:19 52° SE
CZ-4 R/B 3.8 11:23:18 10° N 11:27:58 59° WNW 11:29:06 45° SW
BlueWalker 3 3.6 11:25:53 10° NNW 11:29:23 33° NNE 11:32:52 10° E
Meteor 1-27 Rocket 4.3 11:29:05 36° WSW 11:30:13 39° WNW 11:35:34 10° N
Thor Agena Rocket 3.5 11:26:05 10° NNE 11:31:09 82° ESE 11:34:23 23° S
EO 1 Delta rocket 4.1 11:26:52 10° N 11:31:19 47° WNW 11:32:15 41° WSW
Cosmos 1943 Rocket 2.3 11:26:58 10° NNW 11:32:40 79° ENE 11:38:20 10° SSE
Meteor 2-4 Rocket 3.5 11:30:43 24° S 11:34:07 87° WNW 11:39:37 10° N
H-2A R/B 4.0 11:30:40 10° NE 11:34:55 27° E 11:39:14 10° SSE
COSMOS 2428 4.3 11:34:36 17° WNW 11:35:45 18° NW 11:39:33 10° N
NOSS 2-2 (D) 4.2 11:32:05 10° NNW 11:36:58 89° ENE 11:44:00 10° SSE
Cosmos 1340 Rocket 2.8 11:39:28 48° WSW 11:40:04 54° W 11:43:52 10° N
ALOS 3.5 11:36:45 10° NNW 11:40:24 23° WNW 11:40:36 23° WNW
NOAA 11 4.1 11:35:05 10° N 11:40:31 72° WNW 11:44:06 22° SSW
Cosmos 2237 Rocket 2.9 11:40:21 29° W 11:42:12 37° WNW 11:47:27 10° N
Sich 1 4.3 11:39:00 10° NNW 11:41:29 23° WNW 11:41:29 23° WNW
Cosmos 2112 Rocket 4.1 11:41:26 30° SW 11:43:57 60° WNW 11:49:15 10° N
Lacrosse 5 4.5 11:43:15 10° NNW 11:44:11 10° N 11:45:06 10° N
Cosmos 1867 4.2 11:40:46 10° NW 11:45:36 33° WSW 11:50:24 10° S
Cosmos 1805 3.0 11:42:48 10° NNW 11:46:27 60° W 11:48:23 25° SSW
Cosmos 1328 Rocket 3.5 11:45:30 25° SSW 11:48:00 68° W 11:52:25 10° N
DMSP B5D2-2 4.1 11:45:08 10° SSE 11:50:19 82° ENE 11:55:32 10° N
SWAS 4.3 11:49:53 10° NNW 11:54:06 86° WSW 11:58:18 10° SSE
